| time (UTC) | temp F | wind direction | speed MPH | gust MPH | rain 1hr in | rain 24hr in | rain mn in | humidity % | barometer mb |
| 20260905181027 | 69 | 358 | 2.0 | 5.0 | 0.00 | 0.00 | 0.00 | 70 | 1012.9 |
| 20260905180522 | 70 | 355 | 3.0 | 5.0 | 0.00 | 0.00 | 0.00 | 69 | 1012.9 |
| 20260905180017 | 71 | 331 | 2.0 | 3.0 | 0.00 | 0.00 | 0.00 | 70 | 1012.8 |
| 20260905175516 | 70 | 345 | 3.0 | 7.0 | 0.00 | 0.00 | 0.00 | 66 | 1013.0 |
| 20260905175012 | 72 | 331 | 3.0 | 3.0 | 0.00 | 0.00 | 0.00 | 66 | 1012.9 |
| 20260905174507 | 72 | 277 | 2.0 | 5.0 | 0.00 | 0.00 | 0.00 | 72 | 1012.8 |
| 20260905174003 | 71 | 271 | 2.0 | 3.0 | 0.00 | 0.00 | 0.00 | 71 | 1012.8 |
| 20260905173459 | 70 | 262 | 2.0 | 5.0 | 0.00 | 0.00 | 0.00 | 72 | 1012.7 |
| 20260905172954 | 69 | 322 | 0.0 | 4.0 | 0.00 | 0.00 | 0.00 | 72 | 1012.9 |
| 20260905172452 | 69 | 352 | 0.0 | 3.0 | 0.00 | 0.00 | 0.00 | 74 | 1013.0 |
| 20260905171948 | 69 | 351 | 2.0 | 7.0 | 0.00 | 0.00 | 0.00 | 72 | 1013.1 |
| 20260905171444 | 70 | 330 | 2.0 | 3.0 | 0.00 | 0.00 | 0.00 | 70 | 1012.9 |
| 20260905170940 | 71 | 296 | 1.0 | 7.0 | 0.00 | 0.00 | 0.00 | 73 | 1012.9 |
| 20260905170436 | 69 | 343 | 2.0 | 6.0 | 0.00 | 0.00 | 0.00 | 72 | 1013.0 |
| 20260905165936 | 70 | 245 | 3.0 | 7.0 | 0.00 | 0.00 | 0.00 | 70 | 1013.1 |
| 20260905165431 | 72 | 344 | 2.0 | 4.0 | 0.00 | 0.00 | 0.00 | 67 | 1013.0 |
| 20260905164926 | 72 | 248 | 3.0 | 5.0 | 0.00 | 0.00 | 0.00 | 67 | 1013.1 |
| 20260905164420 | 72 | 247 | 4.0 | 4.0 | 0.00 | 0.00 | 0.00 | 68 | 1012.9 |
| 20260905163915 | 70 | 344 | 4.0 | 6.0 | 0.00 | 0.00 | 0.00 | 70 | 1013.0 |
| 20260905163412 | 69 | 337 | 2.0 | 7.0 | 0.00 | 0.00 | 0.00 | 71 | 1013.1 |
| 20260905162908 | 69 | 332 | 1.0 | 2.0 | 0.00 | 0.00 | 0.00 | 74 | 1013.0 |
| 20260905162402 | 68 | 322 | 3.0 | 6.0 | 0.00 | 0.00 | 0.00 | 71 | 1013.0 |
| 20260905161857 | 69 | 343 | 3.0 | 9.0 | 0.00 | 0.00 | 0.00 | 70 | 1013.3 |
| 20260905161356 | 70 | 258 | 2.0 | 5.0 | 0.00 | 0.00 | 0.00 | 70 | 1013.1 |
| 20260905160854 | 70 | 0 | 3.0 | 5.0 | 0.00 | 0.00 | 0.00 | 72 | 1013.2 |
| 20260905160349 | 68 | 47 | 0.0 | 3.0 | 0.00 | 0.00 | 0.00 | 77 | 1013.2 |
| 20260905155843 | 69 | 346 | 2.0 | 4.0 | 0.00 | 0.00 | 0.00 | 73 | 1013.4 |
| 20260905155343 | 70 | 303 | 0.0 | 4.0 | 0.00 | 0.00 | 0.00 | 74 | 1013.5 |
| 20260905154842 | 68 | 229 | 1.0 | 3.0 | 0.00 | 0.00 | 0.00 | 76 | 1013.4 |
| 20260905154338 | 68 | 335 | 1.0 | 5.0 | 0.00 | 0.00 | 0.00 | 74 | 1013.4 |
| 20260905153833 | 68 | 258 | 1.0 | 4.0 | 0.00 | 0.00 | 0.00 | 73 | 1013.2 |
| 20260905153330 | 69 | 317 | 1.0 | 3.0 | 0.00 | 0.00 | 0.00 | 74 | 1013.3 |
| 20260905152824 | 68 | 259 | 1.0 | 2.0 | 0.00 | 0.00 | 0.00 | 75 | 1013.3 |
| 20260905152323 | 69 | 320 | 2.0 | 4.0 | 0.00 | 0.00 | 0.00 | 75 | 1013.2 |
| 20260905151818 | 70 | 331 | 1.0 | 6.0 | 0.00 | 0.00 | 0.00 | 70 | 1013.2 |
| 20260905151313 | 70 | 234 | 3.0 | 4.0 | 0.00 | 0.00 | 0.00 | 73 | 1013.5 |
| 20260905150808 | 69 | 4 | 1.0 | 3.0 | 0.00 | 0.00 | 0.00 | 75 | 1013.6 |
| 20260905150308 | 69 | 346 | 2.0 | 5.0 | 0.00 | 0.00 | 0.00 | 74 | 1013.6 |
| 20260905145805 | 69 | 235 | 4.0 | 4.0 | 0.00 | 0.00 | 0.00 | 77 | 1013.4 |
| 20260905145259 | 68 | 338 | 2.0 | 3.0 | 0.00 | 0.00 | 0.00 | 81 | 1013.4 |
| 20260905144758 | 68 | 33 | 3.0 | 8.0 | 0.00 | 0.00 | 0.00 | 77 | 1013.3 |
| 20260905144254 | 68 | 296 | 0.0 | 6.0 | 0.00 | 0.00 | 0.00 | 78 | 1013.3 |
| 20260905143752 | 67 | 322 | 3.0 | 9.0 | 0.00 | 0.00 | 0.00 | 80 | 1013.4 |
| 20260905143247 | 65 | 1 | 2.0 | 4.0 | 0.00 | 0.00 | 0.00 | 84 | 1013.4 |
| 20260905142745 | 65 | 336 | 2.0 | 4.0 | 0.00 | 0.00 | 0.00 | 83 | 1013.5 |
| 20260905142240 | 65 | 329 | 2.0 | 6.0 | 0.00 | 0.00 | 0.00 | 84 | 1013.6 |
| 20260905141736 | 66 | 339 | 3.0 | 7.0 | 0.00 | 0.00 | 0.00 | 83 | 1013.5 |
| 20260905141232 | 66 | 357 | 3.0 | 4.0 | 0.00 | 0.00 | 0.00 | 83 | 1013.2 |
| 20260905140727 | 67 | 3 | 0.0 | 2.0 | 0.00 | 0.00 | 0.00 | 81 | 1013.4 |
| 20260905140227 | 66 | 210 | 1.0 | 5.0 | 0.00 | 0.00 | 0.00 | 81 | 1013.2 |
| 20260905135721 | 67 | 269 | 0.0 | 6.0 | 0.00 | 0.00 | 0.00 | 80 | 1013.2 |
| 20260905135217 | 66 | 341 | 3.0 | 7.0 | 0.00 | 0.00 | 0.00 | 83 | 1013.3 |
| 20260905134716 | 65 | 269 | 0.0 | 2.0 | 0.00 | 0.00 | 0.00 | 85 | 1013.3 |
| 20260905134215 | 65 | 272 | 1.0 | 3.0 | 0.00 | 0.00 | 0.00 | 87 | 1013.3 |
| 20260905133710 | 64 | 12 | 2.0 | 4.0 | 0.00 | 0.00 | 0.00 | 87 | 1013.4 |
| 20260905133205 | 65 | 273 | 3.0 | 8.0 | 0.00 | 0.00 | 0.00 | 88 | 1013.5 |
| 20260905132704 | 64 | 302 | 0.0 | 2.0 | 0.00 | 0.00 | 0.00 | 88 | 1013.2 |
| 20260905132200 | 64 | 302 | 0.0 | 4.0 | 0.00 | 0.00 | 0.00 | 90 | 1013.0 |
| 20260905131649 | 64 | 88 | 1.0 | 3.0 | 0.00 | 0.00 | 0.00 | 90 | 1013.0 |
| 20260905131144 | 62 | 291 | 2.0 | 3.0 | 0.00 | 0.00 | 0.00 | 93 | 1013.1 |
| 20260905130639 | 61 | 355 | 3.0 | 3.0 | 0.00 | 0.00 | 0.00 | 96 | 1013.1 |
| 20260905130138 | 61 | 272 | 3.0 | 4.0 | 0.00 | 0.00 | 0.00 | 96 | 1013.2 |
| 20260905125632 | 61 | 323 | 1.0 | 5.0 | 0.00 | 0.00 | 0.00 | 96 | 1013.3 |
| 20260905125128 | 60 | 2 | 2.0 | 3.0 | 0.00 | 0.00 | 0.00 | 96 | 1013.5 |
| 20260905124625 | 60 | 20 | 0.0 | 3.0 | 0.00 | 0.00 | 0.00 | 96 | 1013.8 |
| 20260905124121 | 60 | 238 | 2.0 | 3.0 | 0.00 | 0.00 | 0.00 | 96 | 1013.9 |
| 20260905123615 | 60 | 328 | 2.0 | 5.0 | 0.00 | 0.00 | 0.00 | 96 | 1013.9 |
| 20260905123113 | 60 | 330 | 1.0 | 2.0 | 0.00 | 0.00 | 0.00 | 96 | 1013.9 |
| 20260905122607 | 59 | 32 | 0.0 | 2.0 | 0.00 | 0.00 | 0.00 | 96 | 1013.6 |
| 20260905122107 | 59 | 18 | 2.0 | 2.0 | 0.00 | 0.00 | 0.00 | 96 | 1013.8 |
| 20260905121601 | 59 | 269 | 0.0 | 5.0 | 0.00 | 0.00 | 0.00 | 96 | 1013.9 |
| 20260905121057 | 59 | 204 | 0.0 | 4.0 | 0.00 | 0.00 | 0.00 | 96 | 1013.7 |
| 20260905120556 | 59 | 206 | 0.0 | 1.0 | 0.00 | 0.00 | 0.00 | 96 | 1013.6 |
| 20260905120051 | 58 | 315 | 0.0 | 2.0 | 0.00 | 0.00 | 0.00 | 96 | 1013.6 |
| 20260905115550 | 58 | 352 | 2.0 | 2.0 | 0.00 | 0.00 | 0.00 | 96 | 1013.4 |
| 20260905115045 | 58 | 60 | 0.0 | 3.0 | 0.00 | 0.00 | 0.00 | 96 | 1013.3 |
| 20260905114544 | 57 | 62 | 1.0 | 2.0 | 0.00 | 0.00 | 0.00 | 96 | 1013.1 |
| 20260905114043 | 57 | 327 | 0.0 | 2.0 | 0.00 | 0.00 | 0.00 | 96 | 1013.1 |
| 20260905113538 | 57 | 36 | 0.0 | 2.0 | 0.00 | 0.00 | 0.00 | 96 | 1013.2 |
| 20260905113034 | 57 | 103 | 0.0 | 2.0 | 0.00 | 0.00 | 0.00 | 96 | 1013.1 |
| 20260905112529 | 56 | 83 | 2.0 | 2.0 | 0.00 | 0.00 | 0.00 | 96 | 1013.1 |
| 20260905112024 | 56 | 107 | 1.0 | 2.0 | 0.00 | 0.00 | 0.00 | 96 | 1013.0 |
| 20260905111519 | 55 | 131 | 1.0 | 2.0 | 0.00 | 0.00 | 0.00 | 96 | 1013.0 |
| 20260905111018 | 55 | 129 | 0.0 | 2.0 | 0.00 | 0.00 | 0.00 | 96 | 1012.8 |
| 20260905110518 | 55 | 105 | 1.0 | 2.0 | 0.00 | 0.00 | 0.00 | 96 | 1013.0 |
| 20260905110013 | 54 | 104 | 0.0 | 2.0 | 0.00 | 0.00 | 0.00 | 96 | 1012.8 |
| 20260905105507 | 54 | 62 | 0.0 | 2.0 | 0.00 | 0.00 | 0.00 | 96 | 1012.8 |
| 20260905105006 | 54 | 59 | 1.0 | 2.0 | 0.00 | 0.00 | 0.00 | 96 | 1012.6 |
| 20260905104503 | 54 | 103 | 0.0 | 1.0 | 0.00 | 0.00 | 0.00 | 96 | 1012.6 |
| 20260905103957 | 54 | 113 | 1.0 | 2.0 | 0.00 | 0.00 | 0.00 | 96 | 1012.6 |
| 20260905103452 | 54 | 22 | 0.0 | 0.0 | 0.00 | 0.00 | 0.00 | 96 | 1012.5 |
| 20260905102948 | 54 | 49 | 0.0 | 2.0 | 0.00 | 0.00 | 0.00 | 96 | 1012.5 |
| 20260905102444 | 54 | 22 | 0.0 | 0.0 | 0.00 | 0.00 | 0.00 | 96 | 1012.4 |
| 20260905101939 | 55 | 22 | 0.0 | 1.0 | 0.00 | 0.00 | 0.00 | 96 | 1012.3 |
| 20260905101438 | 55 | 60 | 0.0 | 1.0 | 0.00 | 0.00 | 0.00 | 96 | 1012.5 |
| 20260905100932 | 55 | 72 | 1.0 | 2.0 | 0.00 | 0.00 | 0.00 | 96 | 1012.2 |
| 20260905100428 | 55 | 94 | 1.0 | 2.0 | 0.00 | 0.00 | 0.00 | 96 | 1012.2 |
| 20260905095927 | 55 | 89 | 0.0 | 1.0 | 0.00 | 0.00 | 0.00 | 96 | 1012.2 |
| 20260905095422 | 55 | 94 | 0.0 | 1.0 | 0.00 | 0.00 | 0.00 | 96 | 1012.1 |
| 20260905094922 | 55 | 32 | 0.0 | 2.0 | 0.00 | 0.00 | 0.00 | 96 | 1012.1 |
| 20260905094418 | 55 | 89 | 0.0 | 2.0 | 0.00 | 0.00 | 0.00 | 96 | 1012.1 |
| 20260905093916 | 55 | 113 | 0.0 | 2.0 | 0.00 | 0.00 | 0.00 | 96 | 1012.0 |
| 20260905093412 | 55 | 89 | 0.0 | 0.0 | 0.00 | 0.00 | 0.00 | 96 | 1012.3 |
| 20260905092907 | 55 | 110 | 0.0 | 2.0 | 0.00 | 0.00 | 0.00 | 96 | 1012.1 |
| 20260905092402 | 55 | 89 | 0.0 | 2.0 | 0.00 | 0.00 | 0.00 | 96 | 1012.1 |
| 20260905091857 | 55 | 123 | 0.0 | 1.0 | 0.00 | 0.00 | 0.00 | 96 | 1012.3 |
| 20260905091357 | 55 | 95 | 1.0 | 1.0 | 0.00 | 0.00 | 0.00 | 96 | 1012.1 |
| 20260905090856 | 55 | 148 | 0.0 | 2.0 | 0.00 | 0.00 | 0.00 | 96 | 1012.3 |
| 20260905090352 | 55 | 35 | 0.0 | 2.0 | 0.00 | 0.00 | 0.00 | 96 | 1012.2 |
| 20260905085850 | 56 | 94 | 0.0 | 2.0 | 0.00 | 0.00 | 0.00 | 96 | 1012.1 |
| 20260905085345 | 56 | 49 | 0.0 | 2.0 | 0.00 | 0.00 | 0.00 | 96 | 1012.1 |
| 20260905084842 | 56 | 129 | 0.0 | 0.0 | 0.00 | 0.00 | 0.00 | 96 | 1012.2 |
| 20260905084340 | 56 | 89 | 0.0 | 1.0 | 0.00 | 0.00 | 0.00 | 96 | 1012.1 |
| 20260905083835 | 56 | 89 | 0.0 | 0.0 | 0.00 | 0.00 | 0.00 | 96 | 1012.1 |
| 20260905083331 | 56 | 103 | 0.0 | 1.0 | 0.00 | 0.00 | 0.00 | 96 | 1012.1 |
| 20260905082827 | 56 | 119 | 0.0 | 1.0 | 0.00 | 0.00 | 0.00 | 96 | 1012.4 |
| 20260905082322 | 56 | 102 | 0.0 | 1.0 | 0.00 | 0.00 | 0.00 | 96 | 1012.4 |
| 20260905081817 | 57 | 103 | 0.0 | 1.0 | 0.00 | 0.00 | 0.00 | 96 | 1012.4 |
| 20260905081313 | 57 | 50 | 0.0 | 1.0 | 0.00 | 0.00 | 0.00 | 96 | 1012.2 |
| 20260905080811 | 57 | 142 | 0.0 | 1.0 | 0.00 | 0.00 | 0.00 | 96 | 1012.4 |
| 20260905080306 | 57 | 119 | 0.0 | 1.0 | 0.00 | 0.00 | 0.00 | 96 | 1012.4 |
| 20260905075805 | 57 | 50 | 0.0 | 1.0 | 0.00 | 0.00 | 0.00 | 96 | 1012.3 |
| 20260905075306 | 58 | 37 | 0.0 | 1.0 | 0.00 | 0.00 | 0.00 | 96 | 1012.6 |
| 20260905074803 | 58 | 38 | 0.0 | 1.0 | 0.00 | 0.00 | 0.00 | 96 | 1012.4 |
| 20260905074300 | 58 | 217 | 0.0 | 0.0 | 0.00 | 0.00 | 0.00 | 96 | 1012.5 |
| 20260905073755 | 58 | 50 | 0.0 | 1.0 | 0.00 | 0.00 | 0.00 | 96 | 1012.2 |
| 20260905073250 | 58 | 33 | 0.0 | 2.0 | 0.00 | 0.00 | 0.00 | 96 | 1012.2 |
| 20260905072744 | 58 | 25 | 1.0 | 2.0 | 0.00 | 0.00 | 0.00 | 96 | 1012.4 |
| 20260905072239 | 58 | 28 | 1.0 | 1.0 | 0.00 | 0.00 | 0.00 | 96 | 1012.5 |
| 20260905071736 | 59 | 25 | 0.0 | 1.0 | 0.00 | 0.00 | 0.00 | 96 | 1012.4 |
| 20260905071232 | 59 | 13 | 0.0 | 2.0 | 0.00 | 0.00 | 0.00 | 96 | 1012.4 |
| 20260905070726 | 59 | 42 | 0.0 | 2.0 | 0.00 | 0.00 | 0.00 | 96 | |
| 20260905070223 | 59 | 27 | 0.0 | 1.0 | 0.00 | 0.00 | 0.00 | 96 | |
| 20260905065721 | 59 | 39 | 1.0 | 2.0 | 0.00 | 0.00 | 0.00 | 96 | |
| 20260905065215 | 59 | 31 | 0.0 | 2.0 | 0.00 | 0.00 | 0.00 | 96 | |
| 20260905064710 | 59 | 6 | 0.0 | 1.0 | 0.00 | 0.00 | 0.00 | 96 | |
| 20260905064206 | 59 | 18 | 1.0 | 2.0 | 0.00 | 0.00 | 0.00 | 96 | |
| 20260905063704 | 59 | 12 | 0.0 | 2.0 | 0.00 | 0.00 | 0.00 | 96 | |
| 20260905063201 | 59 | 23 | 0.0 | 2.0 | 0.00 | 0.00 | 0.00 | 96 | |
| 20260905062656 | 59 | 0 | 0.0 | 2.0 | 0.00 | 0.00 | 0.00 | 96 | |
| 20260905062156 | 59 | 352 | 0.0 | 2.0 | 0.00 | 0.00 | 0.00 | 96 | |
| 20260905061655 | 59 | 5 | 0.0 | 2.0 | 0.00 | 0.00 | 0.00 | 96 | |
| 20260905061150 | 58 | 22 | 0.0 | 1.0 | 0.00 | 0.00 | 0.00 | 96 | |
| 20260905060645 | 58 | 49 | 1.0 | 2.0 | 0.00 | 0.00 | 0.00 | 96 | |
| 20260905060142 | 57 | 104 | 1.0 | 2.0 | 0.00 | 0.00 | 0.00 | 96 | |
| 20260905055640 | 57 | 22 | 0.0 | 0.0 | 0.00 | 0.00 | 0.00 | 96 | |
| 20260905055136 | 57 | 125 | 1.0 | 1.0 | 0.00 | 0.00 | 0.00 | 96 | |
| 20260905054631 | 57 | 125 | 1.0 | 1.0 | 0.00 | 0.00 | 0.00 | 96 | |
| 20260905054126 | 57 | 106 | 1.0 | 2.0 | 0.00 | 0.00 | 0.00 | 96 | |
| 20260905053621 | 57 | 49 | 0.0 | 1.0 | 0.00 | 0.00 | 0.00 | 96 | |
| 20260905053116 | 57 | 116 | 0.0 | 2.0 | 0.00 | 0.00 | 0.00 | 96 | |
| 20260905052615 | 57 | 113 | 0.0 | 1.0 | 0.00 | 0.00 | 0.00 | 96 | |
| 20260905052110 | 57 | 66 | 0.0 | 1.0 | 0.00 | 0.00 | 0.00 | 96 | |
| 20260905051606 | 58 | 32 | 0.0 | 1.0 | 0.00 | 0.00 | 0.00 | 96 | |
| 20260905051102 | 58 | 50 | 0.0 | 1.0 | 0.00 | 0.00 | 0.00 | 96 | |
| 20260905050558 | 58 | 37 | 0.0 | 1.0 | 0.00 | 0.00 | 0.00 | 96 | |
| 20260905050054 | 58 | 77 | 0.0 | 1.0 | 0.00 | 0.00 | 0.00 | 96 | |
| 20260905045548 | 58 | 113 | 0.0 | 1.0 | 0.00 | 0.00 | 0.00 | 96 | |
| 20260905045044 | 58 | 76 | 0.0 | 1.0 | 0.00 | 0.00 | 0.00 | 96 | |
| 20260905044544 | 58 | 124 | 0.0 | 1.0 | 0.00 | 0.00 | 0.00 | 96 | |
| 20260905044038 | 59 | 44 | 0.0 | 1.0 | 0.00 | 0.00 | 0.00 | 96 | |
| 20260905043538 | 59 | 44 | 0.0 | 0.0 | 0.00 | 0.00 | 0.00 | 96 | |
| 20260905043033 | 59 | 50 | 0.0 | 1.0 | 0.00 | 0.00 | 0.00 | 96 | |
| 20260905042532 | 59 | 19 | 0.0 | 1.0 | 0.00 | 0.00 | 0.00 | 96 | |
| 20260905042027 | 59 | 47 | 0.0 | 1.0 | 0.00 | 0.00 | 0.00 | 96 | |
| 20260905041523 | 59 | 89 | 0.0 | 1.0 | 0.00 | 0.00 | 0.00 | 96 | |
| 20260905041018 | 60 | 32 | 0.0 | 0.0 | 0.00 | 0.00 | 0.00 | 96 | |
| 20260905040517 | 60 | 32 | 0.0 | 1.0 | 0.00 | 0.00 | 0.00 | 96 | |
| 20260905040016 | 60 | 37 | 0.0 | 0.0 | 0.00 | 0.28 | 0.28 | 96 | |
| 20260905035511 | 60 | 37 | 0.0 | 1.0 | 0.00 | 0.28 | 0.28 | 96 | |
| 20260905035008 | 60 | 20 | 1.0 | 2.0 | 0.00 | 0.28 | 0.28 | 96 | |
| 20260905034503 | 60 | 55 | 0.0 | 1.0 | 0.00 | 0.28 | 0.28 | 96 | |
| 20260905034003 | 61 | 37 | 0.0 | 0.0 | 0.00 | 0.28 | 0.28 | 96 | |
| 20260905033457 | 61 | 37 | 0.0 | 0.0 | 0.00 | 0.28 | 0.28 | 96 | |
| 20260905032952 | 61 | 37 | 0.0 | 2.0 | 0.00 | 0.28 | 0.28 | 96 | |
| 20260905032448 | 61 | 37 | 0.0 | 1.0 | 0.00 | 0.28 | 0.28 | 96 | |
| 20260905031943 | 61 | 71 | 0.0 | 2.0 | 0.00 | 0.28 | 0.28 | 96 | |
| 20260905031438 | 61 | 28 | 0.0 | 1.0 | 0.00 | 0.28 | 0.28 | 96 | |
| 20260905030933 | 62 | 89 | 0.0 | 0.0 | 0.00 | 0.28 | 0.28 | 96 | |
| 20260905030429 | 62 | 129 | 0.0 | 1.0 | 0.00 | 0.28 | 0.28 | 96 | |
| 20260905025927 | 62 | 50 | 0.0 | 1.0 | 0.00 | 0.28 | 0.28 | 96 | |
| 20260905025423 | 62 | 23 | 0.0 | 0.0 | 0.00 | 0.28 | 0.28 | 96 | |
| 20260905024920 | 62 | 89 | 0.0 | 0.0 | 0.00 | 0.28 | 0.28 | 95 | |
| 20260905024420 | 62 | 89 | 0.0 | 1.0 | 0.00 | 0.28 | 0.28 | 95 | |
| 20260905023915 | 63 | 115 | 0.0 | 1.0 | 0.00 | 0.28 | 0.28 | 95 | |
| 20260905023410 | 63 | 129 | 0.0 | 0.0 | 0.00 | 0.28 | 0.28 | 94 | |
| 20260905022909 | 63 | 129 | 0.0 | 0.0 | 0.00 | 0.28 | 0.28 | 93 | |
| 20260905022404 | 64 | 129 | 0.0 | 0.0 | 0.00 | 0.28 | 0.28 | 92 | |
| 20260905021859 | 64 | 129 | 0.0 | 0.0 | 0.00 | 0.28 | 0.28 | 92 | |
| 20260905021349 | 64 | 129 | 0.0 | 0.0 | 0.00 | 0.28 | 0.28 | 92 | |
| 20260905020844 | 64 | 142 | 0.0 | 1.0 | 0.00 | 0.28 | 0.28 | 92 | |
| 20260905020338 | 64 | 37 | 0.0 | 0.0 | 0.00 | 0.28 | 0.28 | 91 | |
| 20260905015838 | 64 | 44 | 0.0 | 1.0 | 0.00 | 0.28 | 0.28 | 91 | |
| 20260905015337 | 64 | 6 | 0.0 | 0.0 | 0.00 | 0.28 | 0.28 | 91 | |
| 20260905014831 | 64 | 6 | 0.0 | 1.0 | 0.00 | 0.28 | 0.28 | 91 | |
| 20260905014327 | 65 | 341 | 0.0 | 1.0 | 0.00 | 0.28 | 0.28 | 91 | |
| 20260905013821 | 64 | 24 | 1.0 | 2.0 | 0.00 | 0.28 | 0.28 | 91 | |
| 20260905013318 | 65 | 22 | 0.0 | 0.0 | 0.00 | 0.28 | 0.28 | 91 | |
| 20260905012813 | 65 | 37 | 0.0 | 1.0 | 0.00 | 0.28 | 0.28 | 90 | |
| 20260905012309 | 65 | 326 | 0.0 | 0.0 | 0.00 | 0.28 | 0.28 | 88 | |
| 20260905011805 | 65 | 326 | 0.0 | 0.0 | 0.00 | 0.28 | 0.28 | 87 | |
| 20260905011300 | 66 | 326 | 0.0 | 1.0 | 0.00 | 0.28 | 0.28 | 86 | |
| 20260905010755 | 66 | 6 | 0.0 | 2.0 | 0.00 | 0.28 | 0.28 | 86 | |
| 20260905010250 | 66 | 303 | 1.0 | 4.0 | 0.00 | 0.28 | 0.28 | 85 | |
| 20260905005747 | 66 | 350 | 0.0 | 3.0 | 0.00 | 0.28 | 0.28 | 85 | |
| 20260905005242 | 66 | 335 | 2.0 | 3.0 | 0.00 | 0.28 | 0.28 | 86 | |
| 20260905004741 | 66 | 339 | 1.0 | 3.0 | 0.00 | 0.28 | 0.28 | 86 | |
| 20260905004236 | 66 | 351 | 2.0 | 3.0 | 0.00 | 0.28 | 0.28 | 87 | |
| 20260905003736 | 66 | 350 | 1.0 | 2.0 | 0.00 | 0.28 | 0.28 | 88 | |
| 20260905003232 | 66 | 348 | 0.0 | 3.0 | 0.00 | 0.28 | 0.28 | 88 | |
| 20260905002728 | 66 | 338 | 0.0 | 2.0 | 0.00 | 0.28 | 0.28 | 89 | |
| 20260905002228 | 66 | 322 | 0.0 | 2.0 | 0.00 | 0.28 | 0.28 | 89 | |
| 20260905001723 | 66 | 354 | 0.0 | 1.0 | 0.00 | 0.28 | 0.28 | 89 | |
| 20260905001222 | 67 | 0 | 0.0 | 2.0 | 0.00 | 0.28 | 0.28 | 87 | |
| 20260905000718 | 67 | 3 | 1.0 | 2.0 | 0.00 | 0.28 | 0.28 | 85 | |
| 20260905000213 | 67 | 346 | 1.0 | 1.0 | 0.00 | 0.28 | 0.28 | 85 | |
| 20260904235708 | 67 | 326 | 0.0 | 1.0 | 0.00 | 0.28 | 0.28 | 85 | |
| 20260904235203 | 67 | 315 | 0.0 | 2.0 | 0.00 | 0.28 | 0.28 | 85 | |
| 20260904234657 | 67 | 324 | 0.0 | 2.0 | 0.00 | 0.28 | 0.28 | 85 | |
| 20260904234153 | 67 | 344 | 1.0 | 2.0 | 0.00 | 0.28 | 0.28 | 85 | |
| 20260904233649 | 67 | 10 | 0.0 | 1.0 | 0.00 | 0.28 | 0.28 | 85 | |
| 20260904233144 | 68 | 352 | 0.0 | 1.0 | 0.00 | 0.28 | 0.28 | 85 | |
| 20260904232641 | 68 | 13 | 0.0 | 2.0 | 0.00 | 0.28 | 0.28 | 85 | |
| 20260904232137 | 68 | 2 | 1.0 | 1.0 | 0.00 | 0.28 | 0.28 | 85 | |
| 20260904231632 | 67 | 333 | 0.0 | 1.0 | 0.00 | 0.28 | 0.28 | 86 | |
| 20260904231127 | 67 | 322 | 0.0 | 0.0 | 0.00 | 0.28 | 0.28 | 89 | |
| 20260904230626 | 68 | 322 | 0.0 | 2.0 | 0.00 | 0.28 | 0.28 | 87 | |
| 20260904230122 | 68 | 6 | 0.0 | 1.0 | 0.00 | 0.28 | 0.28 | 84 | |
| 20260904225619 | 68 | 44 | 0.0 | 2.0 | 0.00 | 0.28 | 0.28 | 82 | |
| 20260904225115 | 69 | 293 | 0.0 | 0.0 | 0.00 | 0.28 | 0.28 | 80 | |
| 20260904224609 | 70 | 293 | 0.0 | 0.0 | 0.00 | 0.28 | 0.28 | 80 | |
| 20260904224104 | 71 | 293 | 0.0 | 0.0 | 0.00 | 0.28 | 0.28 | 78 | |
| 20260904223603 | 71 | 296 | 0.0 | 2.0 | 0.00 | 0.28 | 0.28 | 76 | |
| 20260904223059 | 71 | 310 | 0.0 | 2.0 | 0.00 | 0.28 | 0.28 | 77 | |
| 20260904222555 | 71 | 298 | 1.0 | 3.0 | 0.00 | 0.28 | 0.28 | 74 | |
| 20260904222050 | 72 | 336 | 0.0 | 2.0 | 0.00 | 0.28 | 0.28 | 73 | |
| 20260904221550 | 73 | 325 | 0.0 | 2.0 | 0.00 | 0.28 | 0.28 | 69 | |
| 20260904221044 | 73 | 315 | 0.0 | 3.0 | 0.00 | 0.28 | 0.28 | 69 | |
| 20260904220543 | 73 | 337 | 2.0 | 3.0 | 0.00 | 0.28 | 0.28 | 69 | |
| 20260904220039 | 72 | 310 | 2.0 | 3.0 | 0.00 | 0.28 | 0.28 | 71 | |
| 20260904215534 | 73 | 306 | 1.0 | 3.0 | 0.00 | 0.28 | 0.28 | 69 | |
| 20260904215030 | 73 | 269 | 0.0 | 3.0 | 0.00 | 0.28 | 0.28 | 72 | |
| 20260904214525 | 74 | 321 | 1.0 | 2.0 | 0.00 | 0.28 | 0.28 | 68 | |
| 20260904214020 | 74 | 335 | 2.0 | 7.0 | 0.00 | 0.28 | 0.28 | 67 | |
| 20260904213518 | 76 | 335 | 3.0 | 5.0 | 0.00 | 0.28 | 0.28 | 63 | |
| 20260904213015 | 76 | 312 | 2.0 | 3.0 | 0.00 | 0.28 | 0.28 | 61 | |
| 20260904212514 | 75 | 251 | 1.0 | 9.0 | 0.00 | 0.28 | 0.28 | 65 | |
| 20260904212009 | 75 | 269 | 0.0 | 4.0 | 0.00 | 0.28 | 0.28 | 64 | |
| 20260904211504 | 76 | 258 | 5.0 | 6.0 | 0.00 | 0.28 | 0.28 | 63 | |
| 20260904211000 | 77 | 262 | 2.0 | 2.0 | 0.00 | 0.28 | 0.28 | 61 | |
| 20260904210459 | 76 | 313 | 2.0 | 8.0 | 0.00 | 0.28 | 0.28 | 60 | |
| 20260904205955 | 77 | 256 | 2.0 | 5.0 | 0.00 | 0.28 | 0.28 | 61 | |
| 20260904205450 | 76 | 257 | 3.0 | 4.0 | 0.00 | 0.28 | 0.28 | 62 | |
| 20260904204947 | 76 | 259 | 2.0 | 5.0 | 0.00 | 0.28 | 0.28 | 61 | |
| 20260904204443 | 76 | 322 | 2.0 | 6.0 | 0.00 | 0.28 | 0.28 | 59 | |
| 20260904203938 | 77 | 260 | 5.0 | 10.0 | 0.00 | 0.28 | 0.28 | 57 | |
| 20260904203435 | 75 | 278 | 1.0 | 7.0 | 0.00 | 0.28 | 0.28 | 65 | |
| 20260904202930 | 76 | 345 | 2.0 | 3.0 | 0.00 | 0.28 | 0.28 | 64 | |
| 20260904202426 | 76 | 269 | 1.0 | 5.0 | 0.00 | 0.28 | 0.28 | 61 | |
| 20260904201922 | 76 | 327 | 3.0 | 5.0 | 0.00 | 0.28 | 0.28 | 61 | |
| 20260904201417 | 76 | 252 | 3.0 | 9.0 | 0.00 | 0.28 | 0.28 | 62 | |
| 20260904200912 | 77 | 265 | 1.0 | 4.0 | 0.00 | 0.28 | 0.28 | 60 | |
| 20260904200405 | 76 | 323 | 4.0 | 5.0 | 0.00 | 0.28 | 0.28 | 62 | |
| 20260904195900 | 77 | 279 | 3.0 | 5.0 | 0.00 | 0.28 | 0.28 | 61 | |
| 20260904195358 | 77 | 308 | 1.0 | 5.0 | 0.00 | 0.28 | 0.28 | 59 | |
| 20260904194853 | 75 | 267 | 3.0 | 8.0 | 0.00 | 0.28 | 0.28 | 61 | |
| 20260904194352 | 74 | 305 | 3.0 | 6.0 | 0.00 | 0.28 | 0.28 | 63 | |
| 20260904193848 | 75 | 310 | 2.0 | 5.0 | 0.00 | 0.28 | 0.28 | 63 | |
| 20260904193343 | 75 | 315 | 0.0 | 10.0 | 0.00 | 0.28 | 0.28 | 62 | |
| 20260904192838 | 75 | 304 | 1.0 | 5.0 | 0.00 | 0.28 | 0.28 | 64 | |
| 20260904192333 | 74 | 314 | 3.0 | 5.0 | 0.00 | 0.28 | 0.28 | 65 | |
| 20260904191830 | 76 | 274 | 1.0 | 4.0 | 0.00 | 0.28 | 0.28 | 63 | |
| 20260904191326 | 76 | 337 | 4.0 | 5.0 | 0.00 | 0.28 | 0.28 | 68 | |
| 20260904190823 | 76 | 258 | 0.0 | 5.0 | 0.00 | 0.28 | 0.28 | 63 | |
| 20260904190318 | 76 | 300 | 2.0 | 5.0 | 0.00 | 0.28 | 0.28 | 62 | |
| 20260904185814 | 77 | 325 | 3.0 | 4.0 | 0.00 | 0.28 | 0.28 | 62 | |
| 20260904185310 | 75 | 324 | 3.0 | 5.0 | 0.00 | 0.28 | 0.28 | 64 | |
| 20260904184809 | 75 | 310 | 4.0 | 5.0 | 0.00 | 0.28 | 0.28 | 65 | |
| 20260904184304 | 76 | 15 | 3.0 | 4.0 | 0.00 | 0.28 | 0.28 | 65 | |
| 20260904183759 | 75 | 327 | 3.0 | 7.0 | 0.00 | 0.28 | 0.28 | 64 | |
| 20260904183254 | 75 | 237 | 8.0 | 14.0 | 0.00 | 0.28 | 0.28 | 64 | |
| 20260904182749 | 75 | 17 | 1.0 | 5.0 | 0.00 | 0.28 | 0.28 | 68 | |
| 20260904182244 | 74 | 271 | 1.0 | 4.0 | 0.00 | 0.28 | 0.28 | 69 | |
| 20260904181740 | 75 | 311 | 3.0 | 4.0 | 0.00 | 0.28 | 0.28 | 66 | |
| 20260904181240 | 75 | 313 | 3.0 | 7.0 | 0.00 | 0.28 | 0.28 | 69 |